Staunton, VA

9:35 AM EDT on April 19, 2018 (GMT -0400)
Shenandoah Valley Regional

Weather History for KSHD - February, 2014

Change the Weather History Date:

Thursday, February 13, 2014

  Actual Average Record
Temperature  
Mean Temperature 27 °F -  
Max Temperature 36 °F 47 °F 87 °F (1997)
Min Temperature 18 °F 26 °F 10 °F (2006)
Degree Days  
Heating Degree Days 38    
Moisture  
Dew Point 21 °F    
Average Humidity 82    
Maximum Humidity 93    
Minimum Humidity 51    
Precipitation  
Precipitation 0.09 in - - ()
Sea Level Pressure  
Sea Level Pressure 29.64 in    
Wind  
Wind Speed 10 mph (NNE)    
Max Wind Speed 21 mph    
Max Gust Speed 31 mph    
Visibility 4 miles    
Events Snow    
Averages and records for this station are not official NWS values.
T = Trace of Precipitation, MM = Missing Value Source: NWS Daily Summary

Daily Weather History Graph

Daily Weather History Graph

Search for Another Location

Airport or City:

Astronomy

Feb. 13, 2014 Rise Set
Actual Time 7:08 AM EST 5:51 PM EST
Civil Twilight 6:41 AM EST 6:18 PM EST
Nautical Twilight 6:10 AM EST 6:50 PM EST
Astronomical Twilight 5:39 AM EST 7:20 PM EST
Moon 4:58 PM EST (2/13) 6:00 AM EST (2/13)
Length of Visible Light 11h 37m
Length of Day
10h 43m
Waxing Gibbous, 98% of the Moon is Illuminated
Feb 13
Waxing Gibbous
Feb 14
Full
Feb 22
Last Quarter
Mar 1
New
Mar 8
First Quarter

Hourly Weather History & Observations

Time (EST) Temp. Windchill Dew Point Humidity Pressure Visibility Wind Dir Wind Speed Gust Speed Precip Events Conditions
12:15 AM 19.0 °F 5.6 °F 15.4 °F 86% 30.07 in 2.0 mi NNE 13.8 mph - N/A Snow Light Snow
12:35 AM 18.9 °F 5.9 °F 15.4 °F 87% 30.05 in 1.0 mi North 12.7 mph 17.3 mph N/A Snow Light Snow
12:55 AM 18.5 °F 7.5 °F 15.4 °F 88% 30.04 in 0.8 mi NNE 9.2 mph - N/A Snow Snow
1:15 AM 18.5 °F 4.9 °F 15.6 °F 89% 30.02 in 0.8 mi NNE 13.8 mph - N/A Snow Snow
1:35 AM 18.5 °F 4.3 °F 15.6 °F 89% 30.00 in 1.0 mi NNE 15.0 mph 19.6 mph N/A Snow Snow
1:55 AM 18.5 °F 4.9 °F 15.6 °F 89% 29.98 in 0.5 mi NNE 13.8 mph - N/A Snow Snow
2:15 AM 18.5 °F 4.9 °F 15.6 °F 89% 29.96 in 0.8 mi NNE 13.8 mph - N/A Snow Snow
2:35 AM 18.9 °F 4.8 °F 15.8 °F 88% 29.93 in 0.8 mi NNE 15.0 mph 19.6 mph N/A Snow Snow
2:55 AM 18.9 °F 3.3 °F 15.8 °F 88% 29.91 in 1.0 mi NNE 18.4 mph 25.3 mph N/A Snow Light Snow
3:15 AM 19.0 °F 4.5 °F 15.8 °F 87% 29.91 in 0.8 mi NNE 16.1 mph 23.0 mph N/A Snow Snow
3:35 AM 18.9 °F 4.8 °F 15.8 °F 88% 29.90 in 0.2 mi NNE 15.0 mph 20.7 mph N/A Snow Heavy Snow
3:55 AM 18.9 °F 5.3 °F 15.8 °F 88% 29.87 in 0.8 mi NNE 13.8 mph - N/A Snow Snow
4:15 AM 19.0 °F 6.1 °F 16.0 °F 88% 29.86 in 0.5 mi NNE 12.7 mph 19.6 mph N/A Snow Snow
4:35 AM 19.0 °F 7.5 °F 16.2 °F 89% 29.86 in 0.8 mi NNE 10.4 mph - N/A Snow Snow
4:55 AM 19.2 °F 7.0 °F 16.2 °F 88% 29.84 in 0.8 mi NE 11.5 mph - N/A Snow Snow
5:15 AM 18.1 °F 7.1 °F 14.9 °F 87% 29.83 in 0.8 mi NE 9.2 mph - N/A Snow Snow
5:35 AM 18.0 °F 6.9 °F 14.9 °F 88% 29.82 in 0.5 mi NE 9.2 mph - N/A Snow Snow
5:55 AM 18.0 °F 8.7 °F 14.9 °F 88% 29.81 in 0.8 mi NE 6.9 mph - N/A Snow Snow
6:15 AM 18.0 °F 7.7 °F 14.9 °F 88% 29.79 in 1.0 mi ENE 8.1 mph - N/A Snow Snow
6:35 AM 18.0 °F 7.7 °F 14.7 °F 87% 29.79 in 1.2 mi NE 8.1 mph - N/A Snow Light Snow
6:55 AM 18.0 °F 9.8 °F 14.9 °F 88% 29.78 in 2.0 mi ENE 5.8 mph - N/A Snow Light Snow
7:15 AM 18.0 °F 11.1 °F 14.7 °F 87% 29.78 in 1.5 mi ENE 4.6 mph - N/A Snow Light Snow
7:35 AM 18.1 °F 7.1 °F 14.7 °F 86% 29.76 in 1.0 mi ENE 9.2 mph - N/A Snow Light Snow
7:55 AM 18.3 °F 8.2 °F 14.9 °F 86% 29.75 in 1.2 mi NE 8.1 mph - N/A Snow Light Snow
8:15 AM 18.7 °F 9.5 °F 15.3 °F 87% 29.74 in 1.2 mi NE 6.9 mph - N/A Snow Light Snow
8:35 AM 19.0 °F 11.1 °F 15.3 °F 85% 29.73 in 1.8 mi ENE 5.8 mph - N/A Snow Light Snow
8:55 AM 19.2 °F 11.3 °F 15.4 °F 85% 29.72 in 1.5 mi ENE 5.8 mph - N/A Snow Light Snow
9:15 AM 20.1 °F 11.3 °F 16.0 °F 84% 29.70 in 1.8 mi NE 6.9 mph - N/A Snow Light Snow
9:35 AM 20.3 °F 9.8 °F 16.3 °F 85% 29.68 in 0.5 mi NE 9.2 mph - N/A Snow Light Snow
9:55 AM 21.2 °F 12.6 °F 16.7 °F 83% 29.67 in 1.5 mi NE 6.9 mph - N/A Snow Light Snow
10:15 AM 21.6 °F 13.0 °F 17.1 °F 83% 29.66 in 1.2 mi NE 6.9 mph - N/A Snow Light Snow
10:35 AM 22.5 °F 15.1 °F 17.8 °F 82% 29.64 in 1.5 mi NE 5.8 mph - N/A Snow Light Snow
10:55 AM 23.2 °F 16.0 °F 18.5 °F 82% 29.64 in 2.0 mi NE 5.8 mph - N/A Snow Light Snow
11:15 AM 24.3 °F 16.3 °F 19.4 °F 82% 29.62 in 1.2 mi NE 6.9 mph - 0.01 in Snow Light Snow
11:35 AM 25.3 °F 16.7 °F 20.7 °F 82% 29.61 in 1.0 mi NE 8.1 mph - 0.04 in Snow Light Snow
11:55 AM 26.6 °F 16.8 °F 22.1 °F 83% 29.58 in 1.5 mi NE 10.4 mph - 0.05 in Snow Light Snow
12:15 PM 26.6 °F 17.5 °F 22.1 °F 83% 29.57 in 1.0 mi NE 9.2 mph - 0.01 in   Overcast
12:35 PM 27.5 °F 16.8 °F 22.8 °F 83% 29.54 in 2.5 mi NNE 12.7 mph - 0.01 in Snow Light Snow
12:55 PM 28.2 °F 18.3 °F 23.0 °F 81% 29.52 in 4.0 mi NNE 11.5 mph - 0.02 in   Haze
1:15 PM 28.0 °F 21.7 °F 23.4 °F 83% 29.50 in 2.0 mi North 5.8 mph - N/A Snow Light Snow
1:35 PM 28.4 °F 19.7 °F 23.9 °F 83% 29.49 in 2.5 mi NNE 9.2 mph - N/A Snow Light Snow
1:55 PM 28.8 °F 20.9 °F 24.1 °F 83% 29.48 in 2.0 mi North 8.1 mph - N/A Snow Light Snow
2:35 PM 28.4 °F 20.4 °F 24.8 °F 86% 29.47 in 1.5 mi NNE 8.1 mph - N/A Snow Light Snow
2:55 PM 28.9 °F 22.8 °F 25.3 °F 86% 29.46 in 3.0 mi NNE 5.8 mph - N/A Snow Light Snow
3:15 PM 30.2 °F 22.6 °F 26.1 °F 85% 29.45 in 10.0 mi North 8.1 mph - N/A Snow Light Snow
3:35 PM 30.7 °F 24.9 °F 26.6 °F 85% 29.45 in 1.5 mi North 5.8 mph - N/A Snow Light Snow
3:55 PM 30.9 °F 25.2 °F 27.5 °F 87% 29.45 in 1.2 mi North 5.8 mph - N/A Snow Light Snow
4:15 PM 31.5 °F 26.8 °F 28.4 °F 88% 29.45 in 1.5 mi North 4.6 mph - N/A Snow Light Snow
4:35 PM 31.5 °F 28.1 °F 28.6 °F 89% 29.44 in 1.0 mi North 3.5 mph - N/A   Overcast
4:55 PM 31.5 °F 28.1 °F 29.1 °F 91% 29.44 in 1.0 mi North 3.5 mph - 0.01 in   Overcast
5:15 PM 31.8 °F 27.3 °F 29.3 °F 90% 29.43 in 2.5 mi North 4.6 mph - N/A Snow Light Snow
5:35 PM 31.6 °F - 29.3 °F 91% 29.43 in 3.0 mi Calm Calm - N/A Snow Light Snow
5:55 PM 31.6 °F - 29.5 °F 92% 29.42 in 5.0 mi Calm Calm - N/A Snow Light Snow
6:15 PM 31.1 °F - 29.3 °F 93% 29.43 in 3.0 mi Calm Calm - N/A Snow Light Snow
6:35 PM 31.3 °F - 29.3 °F 92% 29.42 in 7.0 mi Calm Calm - N/A   Overcast
6:55 PM 31.1 °F 27.7 °F 29.1 °F 92% 29.42 in 7.0 mi North 3.5 mph - N/A   Mostly Cloudy
7:15 PM 35.8 °F 27.8 °F 29.3 °F 77% 29.42 in 10.0 mi North 11.5 mph - N/A   Scattered Clouds
7:35 PM 35.8 °F 28.3 °F 28.4 °F 75% 29.42 in 10.0 mi NNW 10.4 mph 16.1 mph N/A   Clear
7:55 PM 36.5 °F 28.7 °F 27.5 °F 70% 29.44 in 10.0 mi NW 11.5 mph - N/A   Scattered Clouds
8:15 PM 36.1 °F 29.3 °F 26.4 °F 68% 29.45 in 10.0 mi NNW 9.2 mph 19.6 mph N/A   Mostly Cloudy
8:35 PM 35.8 °F 31.9 °F 25.5 °F 66% 29.45 in 10.0 mi North 4.6 mph - N/A   Overcast
8:55 PM 32.9 °F - 25.7 °F 75% 29.47 in 10.0 mi Calm Calm - 0.01 in   Mostly Cloudy
9:15 PM 35.4 °F 29.0 °F 25.0 °F 66% 29.48 in 10.0 mi West 8.1 mph - N/A   Scattered Clouds
9:35 PM 36.3 °F 25.5 °F 24.1 °F 61% 29.47 in 5.0 mi NW 20.7 mph 31.1 mph N/A   Haze
9:55 PM 36.1 °F 28.2 °F 22.6 °F 58% 29.48 in 10.0 mi NW 11.5 mph 20.7 mph N/A   Clear
10:15 PM 34.9 °F 28.3 °F 21.7 °F 59% 29.48 in 10.0 mi WNW 8.1 mph 19.6 mph N/A   Clear
10:35 PM 33.6 °F 27.5 °F 19.6 °F 56% 29.48 in 10.0 mi WNW 6.9 mph - N/A   Clear
10:55 PM 33.8 °F 30.8 °F 18.0 °F 52% 29.49 in 10.0 mi West 3.5 mph - N/A   Clear
11:15 PM 32.7 °F - 16.2 °F 51% 29.49 in 10.0 mi Calm Calm - N/A   Clear
11:35 PM 32.0 °F - 16.0 °F 52% 29.50 in 10.0 mi Calm Calm - N/A   Clear
11:55 PM 29.8 °F - 19.2 °F 65% 29.51 in 10.0 mi Calm Calm - N/A   Clear